Airfield :
LOGIN :

Register | Disclaimer

   EN    FR    IT 

 










Legend :    VFR   Marginal VFR   IFR   Intensive IFR   Very Intensive IFR
Visi :
Ceiling :
>= 8 km
>= 3000ft
5 to 8 km
1000 to 3000 ft
1500m to 5 km
500 to 1000 ft
800 to 1500m
200 to 500 ft
< 800m
< 200 ft
Symbols :   Thunderstorms  Fog  Heavy snow  Heavy precipitations  Wind > 20 kt
SIGMETs :     Misc.  Thunderstorms  Icing  Turbulence  Mountain Waves  Volcanic Ashes






- Airport Elevation : 308 ft


ESCF - Malmen AB

CURRENT METAR :
  • 202050Z AUTO 17013KT 9999 OVC011/// 04/03 Q0997

EXPIRED METARs :
  • 202020Z AUTO 16012KT 9999 OVC012/// 04/03 Q0998
  • 201950Z 17013KT 9999 BKN013 04/03 Q0999
  • 201920Z 17013KT 9999 BKN013 04/03 Q1000
  • 201850Z 17012KT 9999 BKN013 04/03 Q1000
  • 201820Z 17011KT 9999 BKN013 03/02 Q1001

Expired Forecast.



MET'MAP, your aeronautical weather chart ! - Copyright ORBIFLY December 2007 - Disclaimer

ORBIFLY MET'MAP TEAM :

Programming & Development : Alexandra Zaïnal
Concept & original design : Baudouin d'Aumeries
Assistance for programming : Marc-Olivier Méhu
Technical & hardware support : Manuel Goepfert

Contact : metmap@orbifly.com




SOURCES & CREDITS :

   NOAA